This is the latest recevied weather packets stored in our database for station/object K8JCL-13. If no packets are shown the sender has not sent any weather packets the latest 10 day(s).
| Time | Temp. | Humidity | Pressure | Rain* | Wind** | Luminosity | Snow |
|---|---|---|---|---|---|---|---|
| 1777678203 | 10° C | 65% | 1015.6 hPa | 0 mm | - | 22 W/m² | - |
| 1777677899 | 10.56° C | 63% | 1015.6 hPa | 0 mm | - | 35 W/m² | - |
| 1777677596 | 10° C | 63% | 1015.5 hPa | 0 mm | - | 50 W/m² | - |
| 1777677295 | 10° C | 63% | 1015.6 hPa | 0 mm | - | 47 W/m² | - |
| 1777676993 | 10° C | 63% | 1015.7 hPa | 0 mm | - | 47 W/m² | - |
| 1777676692 | 10° C | 62% | 1015.6 hPa | 0 mm | - | 49 W/m² | - |
| 1777676389 | 10° C | 62% | 1015.5 hPa | 0 mm | - | 54 W/m² | - |
| 1777676086 | 10° C | 63% | 1015.7 hPa | 0 mm | - | 58 W/m² | - |
| 1777675782 | 10° C | 64% | 1015.7 hPa | 0 mm | - | 48 W/m² | - |
| 1777675479 | 10° C | 64% | 1015.7 hPa | 0 mm | - | 65 W/m² | - |
| 1777675177 | 10° C | 65% | 1015.5 hPa | 0 mm | - | 50 W/m² | - |
| 1777674873 | 10° C | 64% | 1015.6 hPa | 0 mm | - | 47 W/m² | - |
| 1777674568 | 10° C | 63% | 1015.6 hPa | 0 mm | - | 51 W/m² | - |
| 1777674267 | 10.56° C | 62% | 1015.7 hPa | 0 mm | - | 64 W/m² | - |
| 1777673962 | 11.11° C | 63% | 1015.6 hPa | 0 mm | - | 84 W/m² | - |
| 1777673659 | 10.56° C | 61% | 1015.6 hPa | 0 mm | - | 95 W/m² | - |
| 1777673357 | 10.56° C | 62% | 1015.4 hPa | 0 mm | - | 107 W/m² | - |
| 1777673055 | 10.56° C | 64% | 1015.4 hPa | 0 mm | - | 112 W/m² | - |
| 1777672750 | 10.56° C | 63% | 1015.3 hPa | 0 mm | - | 94 W/m² | - |
| 1777672447 | 10.56° C | 63% | 1015.3 hPa | 0 mm | - | 102 W/m² | - |
| 1777672142 | 10.56° C | 62% | 1015.6 hPa | 0 mm | - | 114 W/m² | - |
| 1777671838 | 10.56° C | 63% | 1015.7 hPa | 0 mm | - | 100 W/m² | - |
| 1777671534 | 10° C | 63% | 1015.9 hPa | 0 mm | - | 119 W/m² | - |
| 1777671231 | 10° C | 65% | 1015.5 hPa | 0 mm | - | 102 W/m² | - |
| 1777670926 | 10.56° C | 66% | 1015.6 hPa | 0 mm | - | 91 W/m² | - |
* Rain latest hour (hover to see other rain measurements)
** Current wind speed in m/s (hover to see current wind gust speed)